FW4287 Weather Reports


Display with metric or nautical units.
time (UTC)temp
F
wind
direction
speed
MPH
gust
MPH
rain 1hr
in
rain 24hr
in
rain mn
in
humidity
%
barometer
mb
20220528071527 45 90 0.0 1.0 0.00 0.07 0.00 94 1014.5
20220528070030 45 77 0.0 3.0 0.00 0.07 0.00 94 1014.6
20220528064607 45 45 0.0 1.0 0.00 0.07 0.07 94 1014.7
20220528063031 46 49 0.0 3.0 0.00 0.07 0.07 93 1014.8
20220528061608 46 296 0.0 3.0 0.00 0.07 0.07 92 1015.0
20220528060147 47 286 0.0 3.0 0.00 0.07 0.07 91 1015.1
20220528054529 47 225 0.0 0.0 0.00 0.07 0.07 90 1015.2
20220528053028 48 219 0.0 4.0 0.00 0.07 0.07 90 1015.4
20220528051532 48 206 0.0 4.0 0.00 0.07 0.07 89 1015.5
20220528050030 48 210 2.0 7.0 0.00 0.07 0.07 89 1015.4
20220528044532 47 182 2.0 4.0 0.00 0.07 0.07 90 1015.3
20220528043033 48 162 2.0 4.0 0.00 0.07 0.07 89 1015.2
20220528041606 49 180 2.0 2.0 0.00 0.07 0.07 88 1015.4
20220528040037 0 0 0.0 0.0 0.00 0.07 0.00 100
20220528034533 0 0 0.0 0.0 0.00 0.07 0.00 100
20220528033027 0 0 0.0 0.0 0.01 0.07 0.00 100
20220528031531 49 152 2.0 7.0 0.01 0.07 0.07 88 1015.4
20220528030033 49 164 2.0 6.0 0.01 0.07 0.07 86 1015.5
20220528024605 50 205 3.0 6.0 0.01 0.07 0.06 83 1015.5
20220528023111 51 197 5.0 15.0 0.00 0.06 0.06 76 1015.6
20220528021526 53 197 5.0 10.0 0.00 0.07 0.06 69 1015.2
20220528020031 54 198 5.0 11.0 0.00 0.07 0.06 69 1015.1
20220528014532 54 196 6.0 13.0 0.00 0.07 0.06 69 1015.1
20220528013031 55 206 6.0 15.0 0.00 0.07 0.06 68 1015.0
20220528011536 55 201 6.0 11.0 0.00 0.07 0.06 69 1015.1
20220528010106 56 211 5.0 10.0 0.00 0.07 0.06 69 1015.1
20220528004530 55 209 5.0 10.0 0.00 0.07 0.06 70 1015.2
20220528003031 55 199 4.0 11.0 0.00 0.07 0.06 72 1015.2
20220528001534 54 197 5.0 8.0 0.00 0.07 0.06 71 1015.4
20220528000146 54 211 7.0 12.0 0.00 0.07 0.06 70 1015.4
20220527234530 54 216 5.0 11.0 0.00 0.07 0.06 71 1015.5
20220527233104 54 208 7.0 13.0 0.00 0.07 0.06 70 1015.8
20220527231528 54 209 6.0 13.0 0.00 0.07 0.06 71 1015.7
20220527230031 54 199 5.0 15.0 0.00 0.07 0.06 72 1015.8
20220527224533 54 196 6.0 14.0 0.00 0.07 0.06 72 1016.0
20220527223031 54 185 6.0 12.0 0.00 0.07 0.06 71 1016.2
20220527221538 54 190 6.0 15.0 0.00 0.07 0.06 71 1016.4
20220527220030 54 188 7.0 15.0 0.00 0.07 0.06 71 1016.4
20220527214532 55 186 7.0 14.0 0.00 0.07 0.06 71 1016.4
20220527213033 55 203 5.0 11.0 0.00 0.07 0.06 71 1016.4
20220527211531 55 183 6.0 14.0 0.00 0.07 0.06 71 1016.4
20220527210032 54 198 4.0 11.0 0.00 0.07 0.06 71 1016.4
20220527204532 54 200 8.0 18.0 0.00 0.07 0.06 72 1016.5
20220527203104 55 207 8.0 18.0 0.00 0.07 0.06 71 1016.6
20220527201605 56 207 7.0 17.0 0.00 0.07 0.06 71 1016.4
20220527200028 57 206 7.0 15.0 0.00 0.07 0.06 71 1016.3
20220527194610 57 219 9.0 19.0 0.00 0.07 0.06 71 1016.3
20220527193033 57 229 10.0 18.0 0.00 0.07 0.06 71 1016.3
20220527191531 57 211 8.0 20.0 0.00 0.07 0.06 73 1016.3
20220527190145 56 219 10.0 20.0 0.00 0.07 0.06 75 1016.0
20220527183028 56 220 9.0 16.0 0.00 0.07 0.06 78 1015.9
20220527181529 55 211 7.0 13.0 0.00 0.07 0.06 82 1015.8
20220527180108 54 207 5.0 12.0 0.00 0.07 0.06 84 1015.7
20220527174526 55 205 5.0 10.0 0.00 0.07 0.06 86 1015.6
20220527173105 55 167 3.0 9.0 0.00 0.07 0.06 89 1015.5
20220527171533 54 148 3.0 9.0 0.00 0.07 0.06 90 1015.6
20220527170037 54 161 4.0 8.0 0.00 0.07 0.06 92 1015.6
20220527163031 53 166 3.0 6.0 0.01 0.07 0.06 94 1015.4
20220527161532 52 155 4.0 9.0 0.01 0.07 0.06 95 1015.3
20220527160032 52 155 3.0 6.0 0.01 0.07 0.06 95 1015.1
20220527154608 52 153 2.0 5.0 0.02 0.07 0.05 96 1015.0
20220527153034 51 79 1.0 4.0 0.02 0.06 0.05 95 1014.9
20220527151527 50 63 2.0 5.0 0.02 0.06 0.05 95 1014.9
20220527150106 50 37 1.0 4.0 0.02 0.06 0.04 94 1014.8
20220527144533 51 24 3.0 5.0 0.01 0.05 0.03 94 1014.6
20220527143032 51 202 0.0 0.0 0.01 0.04 0.03 94 1014.4
20220527141554 51 181 2.0 5.0 0.02 0.04 0.03 94 1014.3
20220527140034 51 165 3.0 6.0 0.03 0.04 0.03 93 1014.3
20220527134530 51 104 1.0 5.0 0.03 0.04 0.02 92 1014.3
20220527133106 51 53 2.0 4.0 0.02 0.03 0.01 90 1014.1
20220527131530 53 49 3.0 8.0 0.01 0.02 0.00 85 1014.0
20220527130034 55 230 4.0 11.0 0.00 0.01 0.00 79 1013.7
20220527124534 56 246 4.0 10.0 0.00 0.01 0.00 78 1013.4
20220527123149 56 237 6.0 13.0 0.00 0.01 0.00 78 1013.4
20220527121528 56 234 7.0 14.0 0.00 0.01 0.00 78 1013.3
20220527120028 57 234 6.0 11.0 0.00 0.01 0.00 79 1013.1
20220527114604 56 239 6.0 11.0 0.00 0.01 0.00 82 1012.9
20220527113030 55 239 4.0 13.0 0.00 0.01 0.00 89 1012.7
20220527111530 52 9 1.0 8.0 0.00 0.01 0.00 94 1012.8
20220527110031 53 55 0.0 4.0 0.00 0.01 0.00 94 1012.6
20220527104527 53 51 1.0 4.0 0.00 0.01 0.00 94 1012.6
20220527103148 53 64 1.0 5.0 0.00 0.01 0.00 92 1012.7
20220527101529 55 34 3.0 8.0 0.00 0.01 0.00 92 1012.8
20220527100031 54 244 2.0 8.0 0.00 0.01 0.00 94 1012.7
20220527094609 51 216 2.0 11.0 0.00 0.01 0.00 96 1012.5
20220527093031 49 127 0.0 4.0 0.00 0.01 0.00 97 1012.5
20220527091528 49 112 0.0 3.0 0.00 0.01 0.00 96 1012.5
20220527090032 49 84 0.0 4.0 0.00 0.01 0.00 96 1012.4
20220527084527 48 154 1.0 4.0 0.00 0.01 0.00 96 1012.3
20220527083033 48 135 0.0 0.0 0.00 0.01 0.00 96 1012.2
20220527081530 48 135 0.0 0.0 0.00 0.01 0.00 96 1012.3
20220527080032 48 135 0.0 1.0 0.00 0.01 0.00 96 1012.3
20220527074530 47 135 0.0 1.0 0.00 0.01 0.00 96 1012.3
20220527073033 48 135 0.0 2.0 0.00 0.01 0.00 95 1012.4